Fairfield, OH

8:25 PM EST on February 24, 2017 (GMT -0500)
Butler County Regional

Weather History for KHAO - April, 2014

Change the Weather History Date:

Sunday, April 20, 2014

  Actual Average (KLUK) Record (KLUK)
Temperature  
Mean Temperature 58 °F -  
Max Temperature 79 °F 69 °F 88 °F (1976)
Min Temperature 39 °F 45 °F 29 °F (1969)
Degree Days  
Heating Degree Days 6    
Growing Degree Days 8 (Base 50)    
Moisture  
Dew Point 38 °F    
Average Humidity 54    
Maximum Humidity 83    
Minimum Humidity 19    
Precipitation  
Precipitation 0.00 in - - ()
Sea Level Pressure  
Sea Level Pressure 30.22 in    
Wind  
Wind Speed 1 mph (WNW)    
Max Wind Speed 7 mph    
Max Gust Speed -    
Visibility 10 miles    
Events      
Averages and records for this station are not official NWS values.
T = Trace of Precipitation, MM = Missing Value Source: NWS Daily Summary

Daily Weather History Graph

Daily Weather History Graph

Search for Another Location

Airport or City:

Trip Planner

Search our weather history database for the weather conditions in past years. The results will help you decide how hot, cold, wet, or windy it might be!

Date:

Astronomy

Apr. 20, 2014 Rise Set
Actual Time 6:53 AM EDT 8:20 PM EDT
Civil Twilight 6:25 AM EDT 8:48 PM EDT
Nautical Twilight 5:52 AM EDT 9:22 PM EDT
Astronomical Twilight 5:16 AM EDT 9:58 PM EDT
Moon 12:58 AM EDT (4/20) 11:14 AM EDT (4/20)
Length of Visible Light 14h 23m
Length of Day
13h 26m
Waning Gibbous, 69% of the Moon is Illuminated
Apr 20
Waning Gibbous
Apr 22
Last Quarter
Apr 29
New
May 6
First Quarter
May 14
Full

Hourly Weather History & Observations

Time (EDT) Temp. Windchill Dew Point Humidity Pressure Visibility Wind Dir Wind Speed Gust Speed Precip Events Conditions
12:53 AM 46.0 °F - 37.9 °F 73% 30.27 in 10.0 mi Calm Calm - N/A   Clear
1:53 AM 43.0 °F - 37.0 °F 80% 30.27 in 10.0 mi Calm Calm - N/A   Clear
2:53 AM 42.1 °F - 37.0 °F 82% 30.26 in 10.0 mi Calm Calm - N/A   Clear
3:53 AM 39.9 °F - 35.1 °F 83% 30.26 in 10.0 mi Calm Calm - N/A   Clear
4:53 AM 41.0 °F 39.0 °F 36.0 °F 82% 30.27 in 10.0 mi NW 3.5 mph - N/A   Clear
5:53 AM 39.9 °F - 35.1 °F 83% 30.28 in 10.0 mi Calm Calm - N/A   Clear
6:53 AM 41.0 °F - 36.0 °F 82% 30.29 in 10.0 mi Calm Calm - N/A   Clear
7:53 AM 44.1 °F - 37.9 °F 79% 30.30 in 10.0 mi Calm Calm - N/A   Clear
8:53 AM 51.1 °F - 37.0 °F 59% 30.29 in 10.0 mi Calm Calm - N/A   Clear
9:53 AM 55.9 °F - 37.9 °F 51% 30.29 in 10.0 mi Calm Calm - N/A   Clear
10:53 AM 62.1 °F - 37.0 °F 39% 30.28 in 10.0 mi Calm Calm - N/A   Clear
11:53 AM 66.9 °F - 37.0 °F 33% 30.26 in 10.0 mi Variable 3.5 mph - N/A   Clear
12:53 PM 71.1 °F - 37.0 °F 29% 30.24 in 10.0 mi Variable 3.5 mph - N/A   Clear
1:53 PM 73.0 °F - 36.0 °F 26% 30.22 in 10.0 mi Calm Calm - N/A   Clear
2:53 PM 75.9 °F - 32.0 °F 20% 30.20 in 10.0 mi Variable 3.5 mph - N/A   Clear
3:53 PM 77.0 °F - 34.0 °F 21% 30.18 in 10.0 mi Calm Calm - N/A   Clear
4:53 PM 78.1 °F - 35.1 °F 21% 30.16 in 10.0 mi WSW 6.9 mph - N/A   Clear
5:53 PM 78.1 °F - 33.1 °F 19% 30.14 in 10.0 mi Calm Calm - N/A   Clear
6:53 PM 75.9 °F - 35.1 °F 23% 30.13 in 10.0 mi Calm Calm - N/A   Clear
7:53 PM 69.1 °F - 44.1 °F 40% 30.13 in 10.0 mi NW 3.5 mph - N/A   Clear
8:53 PM 62.1 °F - 46.0 °F 56% 30.13 in 10.0 mi Calm Calm - N/A   Clear
9:53 PM 59.0 °F - 48.9 °F 69% 30.13 in 10.0 mi Calm Calm - N/A   Clear
10:53 PM 54.0 °F - 45.0 °F 72% 30.13 in 10.0 mi Calm Calm - N/A   Clear
11:53 PM 51.1 °F - 43.0 °F 74% 30.12 in 10.0 mi Calm Calm - N/A   Clear